Time,TemperatureF,DewpointF,PressureIn,WindDirection,WindDirectionDegrees,WindSpeedMPH,WindSpeedGustMPH,Humidity,HourlyPrecipIn,Conditions,Clouds,dailyrainin,SolarRadiationWatts/m^2,SoftwareType,DateUTC
2013-01-19 00:03:00,28.0,25.0,-100.00,NW,309,16.0,23.0,90,0.00,,,0.05,0.000000,,2013-01-19 05:03:00,
2013-01-19 00:23:00,28.0,25.0,-100.00,NW,309,16.0,23.0,90,0.00,,,0.05,0.000000,,2013-01-19 05:23:00,
2013-01-19 00:33:00,28.0,25.0,-100.00,NW,309,16.0,23.0,90,0.00,,,0.05,0.000000,,2013-01-19 05:33:00,
2013-01-19 00:43:00,28.0,25.0,-100.00,NW,309,16.0,23.0,90,0.00,,,0.05,0.000000,,2013-01-19 05:43:00,
2013-01-19 00:53:00,28.0,25.0,-100.00,NW,309,16.0,23.0,90,0.00,,,0.05,0.000000,,2013-01-19 05:53:00,
2013-01-19 01:33:00,28.0,24.0,-100.00,WNW,295,20.0,27.0,85,0.00,,,0.05,0.000000,,2013-01-19 06:33:00,
2013-01-19 01:43:00,28.0,24.0,-100.00,WNW,295,20.0,27.0,85,0.00,,,0.05,0.000000,,2013-01-19 06:43:00,
2013-01-19 01:53:00,28.0,24.0,-100.00,WNW,295,20.0,27.0,85,0.00,,,0.05,0.000000,,2013-01-19 06:53:00,
2013-01-19 02:02:00,28.0,24.0,-100.00,WNW,295,20.0,27.0,85,0.00,,,0.05,0.000000,,2013-01-19 07:02:00,
2013-01-19 02:33:00,28.0,21.0,-100.00,NW,304,21.0,27.0,76,0.00,,,0.05,0.000000,,2013-01-19 07:33:00,
2013-01-19 02:43:00,28.0,21.0,-100.00,NW,304,21.0,27.0,76,0.00,,,0.05,0.000000,,2013-01-19 07:43:00,
2013-01-19 02:53:00,28.0,21.0,-100.00,NW,304,21.0,27.0,76,0.00,,,0.05,0.000000,,2013-01-19 07:53:00,
2013-01-19 03:02:00,28.0,21.0,-100.00,NW,304,21.0,27.0,76,0.00,,,0.05,0.000000,,2013-01-19 08:02:00,
2013-01-19 03:33:00,28.0,19.0,-100.00,NW,307,21.0,29.0,69,0.00,,,0.05,0.000000,,2013-01-19 08:33:00,
2013-01-19 03:43:00,28.0,19.0,-100.00,NW,307,21.0,29.0,69,0.00,,,0.05,0.000000,,2013-01-19 08:43:00,
2013-01-19 03:53:00,28.0,19.0,-100.00,NW,307,21.0,29.0,69,0.00,,,0.05,0.000000,,2013-01-19 08:53:00,
2013-01-19 04:02:00,28.0,19.0,-100.00,NW,307,21.0,29.0,69,0.00,,,0.05,0.000000,,2013-01-19 09:02:00,
2013-01-19 04:33:00,27.0,18.0,-100.00,NW,322,10.0,28.0,67,0.00,,,0.05,0.000000,,2013-01-19 09:33:00,
2013-01-19 04:43:00,27.0,18.0,-100.00,NW,322,10.0,28.0,67,0.00,,,0.05,0.000000,,2013-01-19 09:43:00,
2013-01-19 04:53:00,27.0,18.0,-100.00,NW,322,10.0,28.0,67,0.00,,,0.05,0.000000,,2013-01-19 09:53:00,
2013-01-19 05:02:00,27.0,18.0,-100.00,NW,322,10.0,28.0,67,0.00,,,0.05,0.000000,,2013-01-19 10:02:00,
2013-01-19 05:03:00,26.0,17.0,-100.00,NNW,330,6.0,18.0,69,0.00,,,0.05,0.000000,,2013-01-19 10:03:00,
2013-01-19 05:33:00,26.0,17.0,-100.00,NNW,330,6.0,18.0,69,0.00,,,0.05,0.000000,,2013-01-19 10:33:00,
2013-01-19 05:43:00,26.0,17.0,-100.00,NNW,330,6.0,18.0,69,0.00,,,0.05,0.000000,,2013-01-19 10:43:00,
2013-01-19 05:53:00,26.0,17.0,-100.00,NNW,330,6.0,18.0,69,0.00,,,0.05,0.000000,,2013-01-19 10:53:00,
2013-01-19 07:03:00,28.0,10.0,-100.00,NNW,330,10.0,17.0,47,0.00,,,0.05,0.000000,,2013-01-19 12:03:00,
2013-01-19 07:48:00,28.0,10.0,-100.00,NNW,330,10.0,17.0,47,0.00,,,0.05,0.000000,,2013-01-19 12:48:00,
2013-01-19 08:03:00,29.0,13.0,-100.00,North,355,7.0,13.0,50,0.00,,,0.05,9.000000,,2013-01-19 13:03:00,
2013-01-19 08:23:00,29.0,13.0,-100.00,North,355,7.0,13.0,50,0.00,,,0.05,9.000000,,2013-01-19 13:23:00,
2013-01-19 08:34:00,29.0,13.0,-100.00,North,355,7.0,13.0,50,0.00,,,0.05,9.000000,,2013-01-19 13:34:00,
2013-01-19 08:43:00,29.0,13.0,-100.00,North,355,7.0,13.0,50,0.00,,,0.05,9.000000,,2013-01-19 13:43:00,
2013-01-19 08:54:00,29.0,13.0,-100.00,North,355,7.0,13.0,50,0.00,,,0.05,9.000000,,2013-01-19 13:54:00,
2013-01-19 09:03:00,33.0,13.0,-100.00,NNE,30,4.0,14.0,44,0.00,,,0.05,148.000000,,2013-01-19 14:03:00,
2013-01-19 09:34:00,33.0,13.0,-100.00,NNE,30,4.0,14.0,44,0.00,,,0.05,148.000000,,2013-01-19 14:34:00,
2013-01-19 09:43:00,33.0,13.0,-100.00,NNE,30,4.0,14.0,44,0.00,,,0.05,148.000000,,2013-01-19 14:43:00,
2013-01-19 09:54:00,33.0,13.0,-100.00,NNE,30,4.0,14.0,44,0.00,,,0.05,148.000000,,2013-01-19 14:54:00,
2013-01-19 10:03:00,40.0,16.0,-100.00,NNW,348,6.0,12.0,38,0.00,,,-99.99,333.000000,,2013-01-19 15:03:00,
2013-01-19 10:23:00,40.0,16.0,-100.00,NNW,348,6.0,12.0,38,0.00,,,-99.99,333.000000,,2013-01-19 15:23:00,
2013-01-19 10:34:00,40.0,16.0,-100.00,NNW,348,6.0,12.0,38,0.00,,,-99.99,333.000000,,2013-01-19 15:34:00,
2013-01-19 10:43:00,40.0,16.0,-100.00,NNW,348,6.0,12.0,38,0.00,,,-99.99,333.000000,,2013-01-19 15:43:00,
2013-01-19 10:53:00,40.0,16.0,-100.00,NNW,348,6.0,12.0,38,0.00,,,-99.99,333.000000,,2013-01-19 15:53:00,
2013-01-19 11:03:00,40.0,10.0,-100.00,NNW,340,8.0,12.0,29,0.00,,,-99.99,490.000000,,2013-01-19 16:03:00,
2013-01-19 11:33:00,40.0,10.0,-100.00,NNW,340,8.0,12.0,29,0.00,,,-99.99,490.000000,,2013-01-19 16:33:00,
2013-01-19 11:43:00,40.0,10.0,-100.00,NNW,340,8.0,12.0,29,0.00,,,-99.99,490.000000,,2013-01-19 16:43:00,
2013-01-19 11:54:00,40.0,10.0,-100.00,NNW,340,8.0,12.0,29,0.00,,,-99.99,490.000000,,2013-01-19 16:54:00,
2013-01-19 12:03:00,43.0,12.0,-100.00,NNW,332,6.0,15.0,28,0.00,,,0.05,597.000000,,2013-01-19 17:03:00,
2013-01-19 12:38:00,43.0,12.0,-100.00,NNW,332,6.0,15.0,28,0.00,,,0.05,597.000000,,2013-01-19 17:38:00,
2013-01-19 12:50:00,43.0,12.0,-100.00,NNW,332,6.0,15.0,28,0.00,,,0.05,597.000000,,2013-01-19 17:50:00,
2013-01-19 12:55:00,43.0,12.0,-100.00,NNW,332,6.0,15.0,28,0.00,,,0.05,597.000000,,2013-01-19 17:55:00,
2013-01-19 13:03:00,46.0,16.0,-100.00,NNW,345,4.0,13.0,29,0.00,,,0.05,643.000000,,2013-01-19 18:03:00,
2013-01-19 13:38:00,46.0,16.0,-100.00,NNW,345,4.0,13.0,29,0.00,,,0.05,643.000000,,2013-01-19 18:38:00,
2013-01-19 13:48:00,46.0,16.0,-100.00,NNW,345,4.0,13.0,29,0.00,,,0.05,643.000000,,2013-01-19 18:48:00,
2013-01-19 14:03:00,48.0,14.0,-100.00,North,349,4.0,12.0,25,0.00,,,0.05,623.000000,,2013-01-19 19:03:00,
2013-01-19 14:40:00,48.0,14.0,-100.00,North,349,4.0,12.0,25,0.00,,,0.05,623.000000,,2013-01-19 19:40:00,
2013-01-19 14:50:00,48.0,14.0,-100.00,North,349,4.0,12.0,25,0.00,,,0.05,623.000000,,2013-01-19 19:50:00,
2013-01-19 14:59:00,48.0,14.0,-100.00,North,349,4.0,12.0,25,0.00,,,0.05,623.000000,,2013-01-19 19:59:00,
2013-01-19 15:03:00,46.0,12.0,-100.00,NE,42,4.0,10.0,25,0.00,,,0.00,534.000000,,2013-01-19 20:03:00,
2013-01-19 15:28:00,46.0,12.0,-100.00,NE,42,4.0,10.0,25,0.00,,,0.00,534.000000,,2013-01-19 20:28:00,
2013-01-19 15:39:00,46.0,12.0,-100.00,NE,42,4.0,10.0,25,0.00,,,0.00,534.000000,,2013-01-19 20:39:00,
2013-01-19 15:50:00,46.0,12.0,-100.00,NE,42,4.0,10.0,25,0.00,,,0.00,534.000000,,2013-01-19 20:50:00,
2013-01-19 15:59:00,46.0,12.0,-100.00,NE,42,4.0,10.0,25,0.00,,,0.00,534.000000,,2013-01-19 20:59:00,
2013-01-19 16:03:00,44.0,10.0,-100.00,North,352,4.0,9.0,24,0.00,,,0.00,392.000000,,2013-01-19 21:03:00,
2013-01-19 16:53:00,44.0,10.0,-100.00,North,352,4.0,9.0,24,0.00,,,0.00,392.000000,,2013-01-19 21:53:00,
2013-01-19 17:01:00,44.0,10.0,-100.00,North,352,4.0,9.0,24,0.00,,,0.00,392.000000,,2013-01-19 22:01:00,
2013-01-19 17:03:00,41.0,12.0,-100.00,NNE,14,4.0,9.0,30,0.00,,,0.00,212.000000,,2013-01-19 22:03:00,
2013-01-19 17:36:00,41.0,12.0,-100.00,NNE,14,4.0,9.0,30,0.00,,,0.00,212.000000,,2013-01-19 22:36:00,
2013-01-19 17:49:00,41.0,12.0,-100.00,NNE,14,4.0,9.0,30,0.00,,,0.00,212.000000,,2013-01-19 22:49:00,
2013-01-19 17:59:00,41.0,12.0,-100.00,NNE,14,4.0,9.0,30,0.00,,,0.00,212.000000,,2013-01-19 22:59:00,
2013-01-19 18:03:00,35.0,5.0,-100.00,ENE,70,5.0,9.0,28,0.00,,,0.00,18.000000,,2013-01-19 23:03:00,
2013-01-19 18:28:00,35.0,5.0,-100.00,ENE,70,5.0,9.0,28,0.00,,,0.00,18.000000,,2013-01-19 23:28:00,
2013-01-19 18:35:00,35.0,5.0,-100.00,ENE,70,5.0,9.0,28,0.00,,,0.00,18.000000,,2013-01-19 23:35:00,
2013-01-19 19:03:00,33.0,10.0,-100.00,NNW,347,6.0,11.0,38,0.00,,,0.00,0.000000,,2013-01-20 00:03:00,
2013-01-19 19:26:00,33.0,10.0,-100.00,NNW,347,6.0,11.0,38,0.00,,,0.00,0.000000,,2013-01-20 00:26:00,
2013-01-19 19:38:00,33.0,10.0,-100.00,NNW,347,6.0,11.0,38,0.00,,,0.00,0.000000,,2013-01-20 00:38:00,
2013-01-19 19:48:00,33.0,10.0,-100.00,NNW,347,6.0,11.0,38,0.00,,,0.00,0.000000,,2013-01-20 00:48:00,
2013-01-19 19:58:00,33.0,10.0,-100.00,NNW,347,6.0,11.0,38,0.00,,,0.00,0.000000,,2013-01-20 00:58:00,
2013-01-19 20:03:00,33.0,12.0,-100.00,NNE,13,7.0,18.0,41,0.00,,,0.00,0.000000,,2013-01-20 01:03:00,
2013-01-19 20:39:00,33.0,12.0,-100.00,NNE,13,7.0,18.0,41,0.00,,,0.00,0.000000,,2013-01-20 01:39:00,
2013-01-19 20:52:00,33.0,12.0,-100.00,NNE,13,7.0,18.0,41,0.00,,,0.00,0.000000,,2013-01-20 01:52:00,
2013-01-19 21:03:00,31.0,10.0,-100.00,NNE,15,5.0,14.0,41,0.00,,,0.00,0.000000,,2013-01-20 02:03:00,
2013-01-19 21:38:00,31.0,10.0,-100.00,NNE,15,5.0,14.0,41,0.00,,,0.00,0.000000,,2013-01-20 02:38:00,
2013-01-19 21:45:00,31.0,10.0,-100.00,NNE,15,5.0,14.0,41,0.00,,,0.00,0.000000,,2013-01-20 02:45:00,
2013-01-19 21:59:00,31.0,10.0,-100.00,NNE,15,5.0,14.0,41,0.00,,,0.00,0.000000,,2013-01-20 02:59:00,
2013-01-19 22:03:00,32.0,6.0,-100.00,SE,133,5.0,12.0,33,0.00,,,0.00,0.000000,,2013-01-20 03:03:00,
2013-01-19 22:39:00,32.0,6.0,-100.00,SE,133,5.0,12.0,33,0.00,,,0.00,0.000000,,2013-01-20 03:39:00,
2013-01-19 22:47:00,32.0,6.0,-100.00,SE,133,5.0,12.0,33,0.00,,,0.00,0.000000,,2013-01-20 03:47:00,
2013-01-19 22:58:00,32.0,6.0,-100.00,SE,133,5.0,12.0,33,0.00,,,0.00,0.000000,,2013-01-20 03:58:00,
2013-01-19 23:03:00,31.0,8.0,-100.00,NE,51,5.0,12.0,37,0.00,,,0.00,0.000000,,2013-01-20 04:03:00,
2013-01-19 23:28:00,31.0,8.0,-100.00,NE,51,5.0,12.0,37,0.00,,,0.00,0.000000,,2013-01-20 04:28:00,
2013-01-19 23:38:00,31.0,8.0,-100.00,NE,51,5.0,12.0,37,0.00,,,0.00,0.000000,,2013-01-20 04:38:00,
2013-01-19 23:45:00,31.0,8.0,-100.00,NE,51,5.0,12.0,37,0.00,,,0.00,0.000000,,2013-01-20 04:45:00,